Time,TemperatureF,DewpointF,PressureIn,WindDirection,WindDirectionDegrees,WindSpeedMPH,WindSpeedGustMPH,Humidity,HourlyPrecipIn,Conditions,Clouds,dailyrainin,SoftwareType,DateUTC
2013-01-04 00:00:00,25.4,23.4,30.38,ENE,78,1.0,1.0,92,0.00,,,0.00,Wunderground v.1.15,2013-01-04 05:00:00,
2013-01-04 00:05:00,25.6,23.3,30.38,WSW,258,1.0,1.0,91,0.00,,,0.00,Wunderground v.1.15,2013-01-04 05:05:00,
2013-01-04 00:10:00,25.7,23.4,30.38,WSW,258,0.0,0.0,91,0.00,,,0.00,Wunderground v.1.15,2013-01-04 05:10:00,
2013-01-04 00:15:00,26.2,23.7,30.38,SE,142,0.0,0.0,90,0.00,,,0.00,Wunderground v.1.15,2013-01-04 05:15:00,
2013-01-04 00:20:00,26.2,23.4,30.38,West,259,1.0,1.0,89,0.00,,,0.00,Wunderground v.1.15,2013-01-04 05:20:00,
2013-01-04 00:25:00,26.3,23.5,30.38,West,259,0.0,1.0,89,0.00,,,0.00,Wunderground v.1.15,2013-01-04 05:25:00,
2013-01-04 00:30:00,26.2,23.4,30.38,West,259,0.0,0.0,89,0.00,,,0.00,Wunderground v.1.15,2013-01-04 05:30:00,
2013-01-04 00:40:00,26.3,23.5,30.38,WNW,286,0.0,1.0,89,0.00,,,0.00,Wunderground v.1.15,2013-01-04 05:40:00,
2013-01-04 00:45:00,27.0,23.6,30.39,WNW,302,1.0,4.0,87,0.00,,,0.00,Wunderground v.1.15,2013-01-04 05:45:00,
2013-01-04 00:55:00,28.7,23.9,30.39,NW,309,3.0,3.0,82,0.00,,,0.00,Wunderground v.1.15,2013-01-04 05:55:00,
2013-01-04 01:00:00,28.9,24.1,30.39,WSW,252,2.0,2.0,82,0.00,,,0.00,Wunderground v.1.15,2013-01-04 06:00:00,
2013-01-04 01:10:00,28.8,23.4,30.39,NNW,346,1.0,1.0,80,0.00,,,0.00,Wunderground v.1.15,2013-01-04 06:10:00,
2013-01-04 01:15:00,28.8,23.4,30.39,NW,306,1.0,1.0,80,0.00,,,0.00,Wunderground v.1.15,2013-01-04 06:15:00,
2013-01-04 01:20:00,28.8,23.1,30.39,NW,309,1.0,1.0,79,0.00,,,0.00,Wunderground v.1.15,2013-01-04 06:20:00,
2013-01-04 01:25:00,28.8,23.4,30.39,West,272,1.0,1.0,80,0.00,,,0.00,Wunderground v.1.15,2013-01-04 06:25:00,
2013-01-04 01:30:00,28.7,23.0,30.40,NW,314,1.0,1.0,79,0.00,,,0.00,Wunderground v.1.15,2013-01-04 06:30:00,
2013-01-04 01:40:00,28.7,22.7,30.40,NNW,329,1.0,1.0,78,0.00,,,0.00,Wunderground v.1.15,2013-01-04 06:40:00,
2013-01-04 01:45:00,28.5,22.8,30.40,NNW,333,1.0,1.0,79,0.00,,,0.00,Wunderground v.1.15,2013-01-04 06:45:00,
2013-01-04 01:55:00,28.3,22.6,30.40,WNW,283,1.0,6.0,79,0.00,,,0.00,Wunderground v.1.15,2013-01-04 06:55:00,
2013-01-04 02:00:00,28.2,22.5,30.40,West,261,2.0,2.0,79,0.00,,,0.00,Wunderground v.1.15,2013-01-04 07:00:00,
2013-01-04 02:10:00,27.9,22.2,30.40,WNW,302,1.0,1.0,79,0.00,,,0.00,Wunderground v.1.15,2013-01-04 07:10:00,
2013-01-04 02:15:00,27.8,22.4,30.40,SW,224,1.0,1.0,80,0.00,,,0.00,Wunderground v.1.15,2013-01-04 07:15:00,
2013-01-04 02:20:00,27.6,22.5,30.40,NW,315,1.0,1.0,81,0.00,,,0.00,Wunderground v.1.15,2013-01-04 07:20:00,
2013-01-04 02:25:00,27.4,22.3,30.40,SW,229,0.0,1.0,81,0.00,,,0.00,Wunderground v.1.15,2013-01-04 07:25:00,
2013-01-04 02:35:00,27.4,22.3,30.40,WNW,286,1.0,1.0,81,0.00,,,0.00,Wunderground v.1.15,2013-01-04 07:35:00,
2013-01-04 02:40:00,27.6,22.2,30.40,West,277,1.0,3.0,80,0.00,,,0.00,Wunderground v.1.15,2013-01-04 07:40:00,
2013-01-04 02:45:00,27.8,22.4,30.41,WNW,302,1.0,3.0,80,0.00,,,0.00,Wunderground v.1.15,2013-01-04 07:45:00,
2013-01-04 02:55:00,28.0,22.3,30.41,WSW,255,2.0,2.0,79,0.00,,,0.00,Wunderground v.1.15,2013-01-04 07:55:00,
2013-01-04 03:00:00,27.9,22.2,30.41,WNW,284,1.0,1.0,79,0.00,,,0.00,Wunderground v.1.15,2013-01-04 08:00:00,
2013-01-04 03:05:00,27.8,22.1,30.41,NW,311,2.0,4.0,79,0.00,,,0.00,Wunderground v.1.15,2013-01-04 08:05:00,
2013-01-04 03:10:00,27.8,21.8,30.41,NNW,329,2.0,2.0,78,0.00,,,0.00,Wunderground v.1.15,2013-01-04 08:10:00,
2013-01-04 03:20:00,27.6,21.9,30.41,NNW,327,1.0,5.0,79,0.00,,,0.00,Wunderground v.1.15,2013-01-04 08:20:00,
2013-01-04 03:25:00,27.6,21.6,30.41,NW,313,2.0,5.0,78,0.00,,,0.00,Wunderground v.1.15,2013-01-04 08:25:00,
2013-01-04 03:30:00,27.6,21.6,30.41,SSE,163,2.0,4.0,78,0.00,,,0.00,Wunderground v.1.15,2013-01-04 08:30:00,
2013-01-04 03:40:00,27.4,21.4,30.40,WNW,292,1.0,2.0,78,0.00,,,0.00,Wunderground v.1.15,2013-01-04 08:40:00,
2013-01-04 03:45:00,27.5,21.2,30.41,NNW,334,1.0,2.0,77,0.00,,,0.00,Wunderground v.1.15,2013-01-04 08:45:00,
2013-01-04 03:55:00,27.2,21.2,30.40,WNW,296,1.0,1.0,78,0.00,,,0.00,Wunderground v.1.15,2013-01-04 08:55:00,
2013-01-04 04:00:00,27.0,21.1,30.40,WNW,292,1.0,1.0,78,0.00,,,0.00,Wunderground v.1.15,2013-01-04 09:00:00,
2013-01-04 04:10:00,26.5,20.9,30.40,WNW,282,1.0,2.0,79,0.00,,,0.00,Wunderground v.1.15,2013-01-04 09:10:00,
2013-01-04 04:15:00,26.5,20.9,30.40,NW,309,2.0,6.0,79,0.00,,,0.00,Wunderground v.1.15,2013-01-04 09:15:00,
2013-01-04 04:25:00,27.0,20.7,30.40,West,272,3.0,3.0,77,0.00,,,0.00,Wunderground v.1.15,2013-01-04 09:25:00,
2013-01-04 04:30:00,27.1,20.8,30.40,NW,314,2.0,2.0,77,0.00,,,0.00,Wunderground v.1.15,2013-01-04 09:30:00,
2013-01-04 04:40:00,26.6,20.7,30.40,WNW,296,1.0,5.0,78,0.00,,,0.00,Wunderground v.1.15,2013-01-04 09:40:00,
2013-01-04 04:45:00,26.5,20.6,30.40,NW,304,2.0,5.0,78,0.00,,,0.00,Wunderground v.1.15,2013-01-04 09:45:00,
2013-01-04 04:50:00,26.1,20.5,30.40,NW,304,1.0,1.0,79,0.00,,,0.00,Wunderground v.1.15,2013-01-04 09:50:00,
2013-01-04 04:55:00,25.7,20.4,30.40,NW,304,1.0,1.0,80,0.00,,,0.00,Wunderground v.1.15,2013-01-04 09:55:00,
2013-01-04 05:00:00,25.6,20.3,30.40,West,263,1.0,1.0,80,0.00,,,0.00,Wunderground v.1.15,2013-01-04 10:00:00,
2013-01-04 05:10:00,25.7,20.7,30.40,NW,309,2.0,4.0,81,0.00,,,0.00,Wunderground v.1.15,2013-01-04 10:10:00,
2013-01-04 05:15:00,26.0,20.7,30.41,West,275,2.0,4.0,80,0.00,,,0.00,Wunderground v.1.15,2013-01-04 10:15:00,
2013-01-04 05:25:00,26.2,20.6,30.41,NW,305,1.0,3.0,79,0.00,,,0.00,Wunderground v.1.15,2013-01-04 10:25:00,
2013-01-04 05:30:00,26.2,20.6,30.41,WNW,299,1.0,2.0,79,0.00,,,0.00,Wunderground v.1.15,2013-01-04 10:30:00,
2013-01-04 05:35:00,26.2,20.6,30.41,WNW,284,1.0,2.0,79,0.00,,,0.00,Wunderground v.1.15,2013-01-04 10:35:00,
2013-01-04 05:40:00,26.0,20.4,30.40,WNW,298,1.0,3.0,79,0.00,,,0.00,Wunderground v.1.15,2013-01-04 10:40:00,
2013-01-04 05:50:00,25.3,20.0,30.40,West,270,1.0,1.0,80,0.00,,,0.00,Wunderground v.1.15,2013-01-04 10:50:00,
2013-01-04 05:55:00,25.1,20.1,30.41,West,273,1.0,1.0,81,0.00,,,0.00,Wunderground v.1.15,2013-01-04 10:55:00,
2013-01-04 06:05:00,24.7,20.0,30.41,West,279,1.0,1.0,82,0.00,,,0.00,Wunderground v.1.15,2013-01-04 11:05:00,
2013-01-04 06:10:00,24.6,19.9,30.41,West,262,0.0,0.0,82,0.00,,,0.00,Wunderground v.1.15,2013-01-04 11:10:00,
2013-01-04 06:15:00,24.4,19.7,30.41,West,262,0.0,0.0,82,0.00,,,0.00,Wunderground v.1.15,2013-01-04 11:15:00,
2013-01-04 06:25:00,24.0,19.6,30.42,WNW,284,1.0,1.0,83,0.00,,,0.00,Wunderground v.1.15,2013-01-04 11:25:00,
2013-01-04 06:30:00,23.9,19.5,30.42,WNW,284,1.0,1.0,83,0.00,,,0.00,Wunderground v.1.15,2013-01-04 11:30:00,
2013-01-04 06:40:00,23.6,19.5,30.42,WNW,284,0.0,1.0,84,0.00,,,0.00,Wunderground v.1.15,2013-01-04 11:40:00,
2013-01-04 06:45:00,23.4,19.3,30.42,WNW,284,0.0,1.0,84,0.00,,,0.00,Wunderground v.1.15,2013-01-04 11:45:00,
2013-01-04 06:50:00,23.3,19.2,30.42,WNW,284,0.0,0.0,84,0.00,,,0.00,Wunderground v.1.15,2013-01-04 11:50:00,
2013-01-04 06:55:00,22.8,19.0,30.42,WNW,284,0.0,2.0,85,0.00,,,0.00,Wunderground v.1.15,2013-01-04 11:55:00,
2013-01-04 07:00:00,22.5,18.9,30.42,WNW,284,1.0,1.0,86,0.00,,,0.00,Wunderground v.1.15,2013-01-04 12:00:00,
2013-01-04 07:10:00,21.9,18.6,30.43,WNW,286,1.0,1.0,87,0.00,,,0.00,Wunderground v.1.15,2013-01-04 12:10:00,
2013-01-04 07:20:00,21.6,18.6,30.43,WNW,288,1.0,2.0,88,0.00,,,0.00,Wunderground v.1.15,2013-01-04 12:20:00,
2013-01-04 07:25:00,21.6,18.6,30.43,WNW,288,1.0,2.0,88,0.00,,,0.00,Wunderground v.1.15,2013-01-04 12:25:00,
2013-01-04 07:30:00,21.3,18.3,30.43,WNW,288,1.0,1.0,88,0.00,,,0.00,Wunderground v.1.15,2013-01-04 12:30:00,
2013-01-04 07:40:00,21.3,18.6,30.43,West,259,1.0,1.0,89,0.00,,,0.00,Wunderground v.1.15,2013-01-04 12:40:00,
2013-01-04 07:45:00,21.4,18.7,30.43,West,260,0.0,1.0,89,0.00,,,0.00,Wunderground v.1.15,2013-01-04 12:45:00,
2013-01-04 07:50:00,21.5,18.8,30.43,WNW,288,1.0,1.0,89,0.00,,,0.00,Wunderground v.1.15,2013-01-04 12:50:00,
2013-01-04 07:55:00,21.7,19.0,30.43,WNW,288,1.0,1.0,89,0.00,,,0.00,Wunderground v.1.15,2013-01-04 12:55:00,
2013-01-04 08:00:00,21.8,19.1,30.43,WNW,296,1.0,1.0,89,0.00,,,0.00,Wunderground v.1.15,2013-01-04 13:00:00,
2013-01-04 08:10:00,22.9,19.6,30.44,WNW,302,2.0,2.0,87,0.00,,,0.00,Wunderground v.1.15,2013-01-04 13:10:00,
2013-01-04 08:15:00,23.3,20.0,30.44,WNW,297,2.0,2.0,87,0.00,,,0.00,Wunderground v.1.15,2013-01-04 13:15:00,
2013-01-04 08:25:00,24.5,22.5,30.44,West,267,2.0,2.0,92,0.00,,,0.00,Wunderground v.1.15,2013-01-04 13:25:00,
2013-01-04 08:35:00,25.3,20.9,30.45,NW,323,1.0,3.0,83,0.00,,,0.00,Wunderground v.1.15,2013-01-04 13:35:00,
2013-01-04 08:40:00,25.6,20.9,30.45,WNW,290,2.0,7.0,82,0.00,,,0.00,Wunderground v.1.15,2013-01-04 13:40:00,
2013-01-04 08:45:00,26.0,21.0,30.45,WNW,291,2.0,7.0,81,0.00,,,0.00,Wunderground v.1.15,2013-01-04 13:45:00,
2013-01-04 08:50:00,26.2,21.2,30.46,NW,313,3.0,3.0,81,0.00,,,0.00,Wunderground v.1.15,2013-01-04 13:50:00,
2013-01-04 08:55:00,26.3,21.0,30.46,NW,310,3.0,4.0,80,0.00,,,0.00,Wunderground v.1.15,2013-01-04 13:55:00,
2013-01-04 09:00:00,26.4,21.1,30.46,NW,314,3.0,3.0,80,0.00,,,0.00,Wunderground v.1.15,2013-01-04 14:00:00,
2013-01-04 09:10:00,26.5,21.2,30.45,NW,311,3.0,3.0,80,0.00,,,0.00,Wunderground v.1.15,2013-01-04 14:10:00,
2013-01-04 09:15:00,26.6,21.3,30.46,West,260,4.0,5.0,80,0.00,,,0.00,Wunderground v.1.15,2013-01-04 14:15:00,
2013-01-04 09:25:00,26.9,21.6,30.46,NW,311,5.0,7.0,80,0.00,,,0.00,Wunderground v.1.15,2013-01-04 14:25:00,
2013-01-04 09:30:00,27.0,21.4,30.46,WNW,286,5.0,9.0,79,0.00,,,0.00,Wunderground v.1.15,2013-01-04 14:30:00,
2013-01-04 09:40:00,27.6,21.9,30.47,WNW,282,7.0,7.0,79,0.00,,,0.00,Wunderground v.1.15,2013-01-04 14:40:00,
2013-01-04 09:50:00,27.7,21.7,30.47,West,277,6.0,6.0,78,0.00,,,0.00,Wunderground v.1.15,2013-01-04 14:50:00,
2013-01-04 09:55:00,27.7,22.0,30.47,NW,306,5.0,6.0,79,0.00,,,0.00,Wunderground v.1.15,2013-01-04 14:55:00,
2013-01-04 10:00:00,27.9,21.9,30.47,West,273,5.0,7.0,78,0.00,,,0.00,Wunderground v.1.15,2013-01-04 15:00:00,
2013-01-04 10:10:00,28.1,22.1,30.47,NW,305,5.0,9.0,78,0.00,,,0.00,Wunderground v.1.15,2013-01-04 15:10:00,
2013-01-04 10:15:00,28.6,22.3,30.47,West,275,6.0,9.0,77,0.00,,,0.00,Wunderground v.1.15,2013-01-04 15:15:00,
2013-01-04 10:25:00,29.0,22.4,30.47,NW,310,5.0,7.0,76,0.00,,,0.00,Wunderground v.1.15,2013-01-04 15:25:00,
2013-01-04 10:35:00,29.6,23.0,30.46,NW,314,6.0,8.0,76,0.00,,,0.00,Wunderground v.1.15,2013-01-04 15:35:00,
2013-01-04 10:40:00,29.9,23.3,30.47,NW,309,6.0,6.0,76,0.00,,,0.00,Wunderground v.1.15,2013-01-04 15:40:00,
2013-01-04 10:45:00,30.1,23.1,30.47,West,264,5.0,7.0,75,0.00,,,0.00,Wunderground v.1.15,2013-01-04 15:45:00,
2013-01-04 10:55:00,30.7,23.4,30.47,NW,319,5.0,7.0,74,0.00,,,0.00,Wunderground v.1.15,2013-01-04 15:55:00,
2013-01-04 11:05:00,31.1,23.8,30.46,NW,309,5.0,7.0,74,0.00,,,0.00,Wunderground v.1.15,2013-01-04 16:05:00,
2013-01-04 11:10:00,31.5,24.2,30.46,WNW,303,5.0,12.0,74,0.00,,,0.00,Wunderground v.1.15,2013-01-04 16:10:00,
2013-01-04 11:15:00,31.2,23.5,30.46,WNW,288,6.0,12.0,73,0.00,,,0.00,Wunderground v.1.15,2013-01-04 16:15:00,
2013-01-04 11:20:00,31.4,23.1,30.46,WNW,287,5.0,9.0,71,0.00,,,0.00,Wunderground v.1.15,2013-01-04 16:20:00,
2013-01-04 11:25:00,31.3,23.6,30.46,NW,306,6.0,10.0,73,0.00,,,0.00,Wunderground v.1.15,2013-01-04 16:25:00,
2013-01-04 11:30:00,31.5,23.5,30.45,WNW,290,7.0,7.0,72,0.00,,,0.00,Wunderground v.1.15,2013-01-04 16:30:00,
2013-01-04 11:40:00,32.2,23.5,30.45,WNW,291,4.0,8.0,70,0.00,,,0.00,Wunderground v.1.15,2013-01-04 16:40:00,
2013-01-04 11:45:00,32.1,23.4,30.45,NW,317,6.0,10.0,70,0.00,,,0.00,Wunderground v.1.15,2013-01-04 16:45:00,
2013-01-04 11:55:00,31.7,23.0,30.44,NNW,327,8.0,11.0,70,0.00,,,0.00,Wunderground v.1.15,2013-01-04 16:55:00,
2013-01-04 12:00:00,31.8,23.5,30.43,NW,326,8.0,8.0,71,0.00,,,0.00,Wunderground v.1.15,2013-01-04 17:00:00,
2013-01-04 12:05:00,32.6,24.2,30.44,SW,235,6.0,8.0,71,0.00,,,0.00,Wunderground v.1.15,2013-01-04 17:05:00,
2013-01-04 12:10:00,32.6,24.2,30.43,NW,309,5.0,12.0,71,0.00,,,0.00,Wunderground v.1.15,2013-01-04 17:10:00,
2013-01-04 12:15:00,32.7,24.3,30.43,WNW,302,5.0,12.0,71,0.00,,,0.00,Wunderground v.1.15,2013-01-04 17:15:00,
2013-01-04 12:25:00,33.3,24.6,30.43,WNW,294,6.0,11.0,70,0.00,,,0.00,Wunderground v.1.15,2013-01-04 17:25:00,
2013-01-04 12:30:00,33.5,24.4,30.42,NW,311,6.0,6.0,69,0.00,,,0.00,Wunderground v.1.15,2013-01-04 17:30:00,
2013-01-04 12:40:00,34.1,24.6,30.42,NW,319,6.0,11.0,68,0.00,,,0.00,Wunderground v.1.15,2013-01-04 17:40:00,
2013-01-04 12:45:00,34.0,24.2,30.42,NW,318,7.0,11.0,67,0.00,,,0.00,Wunderground v.1.15,2013-01-04 17:45:00,
2013-01-04 12:55:00,34.1,23.9,30.42,West,281,7.0,9.0,66,0.00,,,0.00,Wunderground v.1.15,2013-01-04 17:55:00,
2013-01-04 13:00:00,33.9,23.7,30.41,WNW,295,7.0,11.0,66,0.00,,,0.00,Wunderground v.1.15,2013-01-04 18:00:00,
2013-01-04 13:10:00,34.0,24.5,30.41,WNW,297,7.0,7.0,68,0.00,,,0.00,Wunderground v.1.15,2013-01-04 18:10:00,
2013-01-04 13:15:00,34.6,24.8,30.41,NNW,343,6.0,7.0,67,0.00,,,0.00,Wunderground v.1.15,2013-01-04 18:15:00,
2013-01-04 13:20:00,35.1,25.2,30.40,NW,320,5.0,5.0,67,0.00,,,0.00,Wunderground v.1.15,2013-01-04 18:20:00,
2013-01-04 13:25:00,34.4,23.5,30.40,NW,323,6.0,7.0,64,0.00,,,0.00,Wunderground v.1.15,2013-01-04 18:25:00,
2013-01-04 13:30:00,34.1,24.3,30.40,NW,307,6.0,7.0,67,0.00,,,0.00,Wunderground v.1.15,2013-01-04 18:30:00,
2013-01-04 13:40:00,33.8,24.0,30.40,NNW,332,7.0,7.0,67,0.00,,,0.00,Wunderground v.1.15,2013-01-04 18:40:00,
2013-01-04 13:45:00,33.9,24.4,30.39,NNW,338,6.0,7.0,68,0.00,,,0.00,Wunderground v.1.15,2013-01-04 18:45:00,
2013-01-04 13:55:00,33.7,24.3,30.39,WNW,298,5.0,5.0,68,0.00,,,0.00,Wunderground v.1.15,2013-01-04 18:55:00,
2013-01-04 14:00:00,33.7,23.9,30.39,WNW,302,5.0,6.0,67,0.00,,,0.00,Wunderground v.1.15,2013-01-04 19:00:00,
2013-01-04 14:10:00,33.5,23.7,30.39,North,355,7.0,7.0,67,0.00,,,0.00,Wunderground v.1.15,2013-01-04 19:10:00,
2013-01-04 14:15:00,33.4,24.0,30.39,NW,309,8.0,9.0,68,0.00,,,0.00,Wunderground v.1.15,2013-01-04 19:15:00,
2013-01-04 14:20:00,33.3,23.9,30.39,WNW,293,7.0,7.0,68,0.00,,,0.00,Wunderground v.1.15,2013-01-04 19:20:00,
2013-01-04 14:25:00,33.5,24.4,30.39,WNW,294,5.0,7.0,69,0.00,,,0.00,Wunderground v.1.15,2013-01-04 19:25:00,
2013-01-04 14:30:00,33.6,24.9,30.38,NNW,329,3.0,4.0,70,0.00,,,0.00,Wunderground v.1.15,2013-01-04 19:30:00,
2013-01-04 14:40:00,33.6,24.5,30.39,West,269,5.0,5.0,69,0.00,,,0.00,Wunderground v.1.15,2013-01-04 19:40:00,
2013-01-04 14:45:00,33.5,24.8,30.39,NNW,347,6.0,6.0,70,0.00,,,0.00,Wunderground v.1.15,2013-01-04 19:45:00,
2013-01-04 14:55:00,33.6,24.5,30.39,NNW,346,6.0,6.0,69,0.00,,,0.00,Wunderground v.1.15,2013-01-04 19:55:00,
2013-01-04 15:00:00,33.7,25.0,30.40,NW,325,6.0,6.0,70,0.00,,,0.00,Wunderground v.1.15,2013-01-04 20:00:00,
2013-01-04 15:10:00,34.1,25.0,30.39,SSE,164,5.0,5.0,69,0.00,,,0.00,Wunderground v.1.15,2013-01-04 20:10:00,
2013-01-04 15:15:00,34.0,24.5,30.39,WNW,291,3.0,5.0,68,0.00,,,0.00,Wunderground v.1.15,2013-01-04 20:15:00,
2013-01-04 15:20:00,34.0,24.9,30.39,NW,306,3.0,3.0,69,0.00,,,0.00,Wunderground v.1.15,2013-01-04 20:20:00,
2013-01-04 15:25:00,34.1,24.6,30.40,West,263,3.0,3.0,68,0.00,,,0.00,Wunderground v.1.15,2013-01-04 20:25:00,
2013-01-04 15:30:00,34.2,25.1,30.40,NNW,334,2.0,2.0,69,0.00,,,0.00,Wunderground v.1.15,2013-01-04 20:30:00,
2013-01-04 15:40:00,34.5,24.7,30.40,NNW,327,5.0,5.0,67,0.00,,,0.00,Wunderground v.1.15,2013-01-04 20:40:00,
2013-01-04 15:45:00,34.4,24.6,30.40,West,277,5.0,5.0,67,0.00,,,0.00,Wunderground v.1.15,2013-01-04 20:45:00,
2013-01-04 15:55:00,34.4,24.6,30.40,West,265,4.0,5.0,67,0.00,,,0.00,Wunderground v.1.15,2013-01-04 20:55:00,
2013-01-04 16:00:00,34.4,24.6,30.41,WNW,300,4.0,4.0,67,0.00,,,0.00,Wunderground v.1.15,2013-01-04 21:00:00,
2013-01-04 16:10:00,34.5,24.7,30.41,WSW,257,4.0,4.0,67,0.00,,,0.00,Wunderground v.1.15,2013-01-04 21:10:00,
2013-01-04 16:15:00,34.6,24.4,30.41,SW,223,4.0,4.0,66,0.00,,,0.00,Wunderground v.1.15,2013-01-04 21:15:00,
2013-01-04 16:25:00,34.5,23.9,30.41,NW,322,5.0,5.0,65,0.00,,,0.00,Wunderground v.1.15,2013-01-04 21:25:00,
2013-01-04 16:30:00,34.4,24.6,30.41,WSW,240,4.0,4.0,67,0.00,,,0.00,Wunderground v.1.15,2013-01-04 21:30:00,
2013-01-04 16:40:00,34.2,24.0,30.41,NW,320,3.0,4.0,66,0.00,,,0.00,Wunderground v.1.15,2013-01-04 21:40:00,
2013-01-04 16:45:00,34.1,23.9,30.42,NW,304,3.0,4.0,66,0.00,,,0.00,Wunderground v.1.15,2013-01-04 21:45:00,
2013-01-04 16:55:00,33.8,24.0,30.41,WNW,286,4.0,4.0,67,0.00,,,0.00,Wunderground v.1.15,2013-01-04 21:55:00,
2013-01-04 17:00:00,33.7,23.5,30.41,NW,313,4.0,4.0,66,0.00,,,0.00,Wunderground v.1.15,2013-01-04 22:00:00,
2013-01-04 17:05:00,33.4,24.3,30.41,West,264,2.0,4.0,69,0.00,,,0.00,Wunderground v.1.15,2013-01-04 22:05:00,
2013-01-04 17:10:00,33.0,23.9,30.41,West,264,1.0,1.0,69,0.00,,,0.00,Wunderground v.1.15,2013-01-04 22:10:00,
2013-01-04 17:15:00,32.6,23.9,30.42,West,264,0.0,1.0,70,0.00,,,0.00,Wunderground v.1.15,2013-01-04 22:15:00,
2013-01-04 17:25:00,32.0,23.3,30.42,WNW,284,1.0,4.0,70,0.00,,,0.00,Wunderground v.1.15,2013-01-04 22:25:00,
2013-01-04 17:30:00,32.0,25.3,30.42,WSW,255,2.0,2.0,76,0.00,,,0.00,Wunderground v.1.15,2013-01-04 22:30:00,
2013-01-04 17:40:00,31.3,23.6,30.41,ENE,69,0.0,3.0,73,0.00,,,0.00,Wunderground v.1.15,2013-01-04 22:40:00,
2013-01-04 17:50:00,30.7,23.4,30.43,West,261,1.0,2.0,74,0.00,,,0.00,Wunderground v.1.15,2013-01-04 22:50:00,
2013-01-04 17:55:00,30.7,22.7,30.43,WNW,298,2.0,3.0,72,0.00,,,0.00,Wunderground v.1.15,2013-01-04 22:55:00,
2013-01-04 18:00:00,31.1,23.1,30.43,West,271,2.0,2.0,72,0.00,,,0.00,Wunderground v.1.15,2013-01-04 23:00:00,
2013-01-04 18:10:00,30.9,22.6,30.44,WNW,301,1.0,4.0,71,0.00,,,0.00,Wunderground v.1.15,2013-01-04 23:10:00,
2013-01-04 18:15:00,31.3,22.6,30.45,WNW,302,3.0,6.0,70,0.00,,,0.00,Wunderground v.1.15,2013-01-04 23:15:00,
2013-01-04 18:25:00,31.7,23.0,30.45,NW,324,4.0,4.0,70,0.00,,,0.00,Wunderground v.1.15,2013-01-04 23:25:00,
2013-01-04 18:30:00,31.7,22.7,30.45,NW,310,3.0,4.0,69,0.00,,,0.00,Wunderground v.1.15,2013-01-04 23:30:00,
2013-01-04 18:40:00,31.4,22.7,30.45,NW,308,3.0,11.0,70,0.00,,,0.00,Wunderground v.1.15,2013-01-04 23:40:00,
2013-01-04 18:45:00,31.7,22.7,30.45,West,275,5.0,11.0,69,0.00,,,0.00,Wunderground v.1.15,2013-01-04 23:45:00,
2013-01-04 18:55:00,31.7,22.7,30.46,WNW,284,2.0,5.0,69,0.00,,,0.00,Wunderground v.1.15,2013-01-04 23:55:00,
2013-01-04 19:00:00,31.4,23.1,30.46,WNW,284,2.0,2.0,71,0.00,,,0.00,Wunderground v.1.15,2013-01-05 00:00:00,
2013-01-04 19:05:00,31.3,23.0,30.46,WSW,255,1.0,4.0,71,0.00,,,0.00,Wunderground v.1.15,2013-01-05 00:05:00,
2013-01-04 19:10:00,31.5,23.2,30.47,NW,308,2.0,5.0,71,0.00,,,0.00,Wunderground v.1.15,2013-01-05 00:10:00,
2013-01-04 19:15:00,31.8,22.8,30.47,NNW,345,3.0,5.0,69,0.00,,,0.00,Wunderground v.1.15,2013-01-05 00:15:00,
2013-01-04 19:25:00,32.0,23.0,30.46,NW,319,2.0,4.0,69,0.00,,,0.00,Wunderground v.1.15,2013-01-05 00:25:00,
2013-01-04 19:30:00,31.9,22.9,30.47,West,279,1.0,1.0,69,0.00,,,0.00,Wunderground v.1.15,2013-01-05 00:30:00,
2013-01-04 19:40:00,31.5,23.5,30.47,WNW,288,0.0,3.0,72,0.00,,,0.00,Wunderground v.1.15,2013-01-05 00:40:00,
2013-01-04 19:45:00,31.8,23.1,30.46,WNW,288,1.0,3.0,70,0.00,,,0.00,Wunderground v.1.15,2013-01-05 00:45:00,
2013-01-04 19:55:00,31.9,23.2,30.46,NW,311,2.0,2.0,70,0.00,,,0.00,Wunderground v.1.15,2013-01-05 00:55:00,
2013-01-04 20:00:00,31.9,23.2,30.46,WNW,289,2.0,2.0,70,0.00,,,0.00,Wunderground v.1.15,2013-01-05 01:00:00,
2013-01-04 20:05:00,32.0,23.0,30.46,NW,308,2.0,2.0,69,0.00,,,0.00,Wunderground v.1.15,2013-01-05 01:05:00,
2013-01-04 20:15:00,31.8,23.5,30.46,NW,307,0.0,3.0,71,0.00,,,0.00,Wunderground v.1.15,2013-01-05 01:15:00,
2013-01-04 20:25:00,31.7,23.0,30.46,WNW,288,2.0,2.0,70,0.00,,,0.00,Wunderground v.1.15,2013-01-05 01:25:00,
2013-01-04 20:30:00,31.6,22.6,30.45,NNW,342,2.0,2.0,69,0.00,,,0.00,Wunderground v.1.15,2013-01-05 01:30:00,
2013-01-04 20:40:00,31.5,22.5,30.45,WNW,287,3.0,4.0,69,0.00,,,0.00,Wunderground v.1.15,2013-01-05 01:40:00,
2013-01-04 20:45:00,31.5,22.5,30.45,West,266,4.0,4.0,69,0.00,,,0.00,Wunderground v.1.15,2013-01-05 01:45:00,
2013-01-04 20:50:00,31.5,22.5,30.45,WNW,294,3.0,3.0,69,0.00,,,0.00,Wunderground v.1.15,2013-01-05 01:50:00,
2013-01-04 20:55:00,31.2,22.9,30.45,WNW,288,3.0,3.0,71,0.00,,,0.00,Wunderground v.1.15,2013-01-05 01:55:00,
2013-01-04 21:00:00,30.7,22.7,30.45,West,260,1.0,4.0,72,0.00,,,0.00,Wunderground v.1.15,2013-01-05 02:00:00,
2013-01-04 21:10:00,30.8,22.5,30.45,West,279,4.0,4.0,71,0.00,,,0.00,Wunderground v.1.15,2013-01-05 02:10:00,
2013-01-04 21:15:00,30.8,22.5,30.45,WNW,301,4.0,4.0,71,0.00,,,0.00,Wunderground v.1.15,2013-01-05 02:15:00,
2013-01-04 21:25:00,30.5,22.5,30.45,WNW,290,1.0,3.0,72,0.00,,,0.00,Wunderground v.1.15,2013-01-05 02:25:00,
2013-01-04 21:30:00,30.1,22.5,30.45,West,281,1.0,1.0,73,0.00,,,0.00,Wunderground v.1.15,2013-01-05 02:30:00,
2013-01-04 21:35:00,29.7,22.4,30.45,West,278,1.0,2.0,74,0.00,,,0.00,Wunderground v.1.15,2013-01-05 02:35:00,
2013-01-04 21:40:00,29.4,22.5,30.45,West,279,1.0,1.0,75,0.00,,,0.00,Wunderground v.1.15,2013-01-05 02:40:00,
2013-01-04 21:50:00,28.8,22.2,30.45,NW,310,1.0,1.0,76,0.00,,,0.00,Wunderground v.1.15,2013-01-05 02:50:00,
2013-01-04 21:55:00,28.9,22.3,30.46,West,278,1.0,1.0,76,0.00,,,0.00,Wunderground v.1.15,2013-01-05 02:55:00,
2013-01-04 22:05:00,28.7,22.4,30.46,West,278,0.0,1.0,77,0.00,,,0.00,Wunderground v.1.15,2013-01-05 03:05:00,
2013-01-04 22:10:00,28.3,22.3,30.46,West,269,0.0,0.0,78,0.00,,,0.00,Wunderground v.1.15,2013-01-05 03:10:00,
2013-01-04 22:15:00,28.0,22.3,30.45,West,269,0.0,1.0,79,0.00,,,0.00,Wunderground v.1.15,2013-01-05 03:15:00,
2013-01-04 22:20:00,27.7,22.3,30.45,West,269,0.0,2.0,80,0.00,,,0.00,Wunderground v.1.15,2013-01-05 03:20:00,
2013-01-04 22:25:00,27.6,22.2,30.45,West,269,1.0,2.0,80,0.00,,,0.00,Wunderground v.1.15,2013-01-05 03:25:00,
2013-01-04 22:30:00,27.3,22.2,30.45,West,269,0.0,0.0,81,0.00,,,0.00,Wunderground v.1.15,2013-01-05 03:30:00,
2013-01-04 22:40:00,27.0,22.2,30.46,West,269,0.0,0.0,82,0.00,,,0.00,Wunderground v.1.15,2013-01-05 03:40:00,
2013-01-04 22:45:00,26.6,21.8,30.46,West,269,0.0,0.0,82,0.00,,,0.00,Wunderground v.1.15,2013-01-05 03:45:00,
2013-01-04 22:55:00,26.1,21.9,30.46,West,269,0.0,0.0,84,0.00,,,0.00,Wunderground v.1.15,2013-01-05 03:55:00,
2013-01-04 23:00:00,25.8,21.6,30.46,WNW,302,0.0,0.0,84,0.00,,,0.00,Wunderground v.1.15,2013-01-05 04:00:00,
2013-01-04 23:05:00,25.6,21.7,30.46,WNW,302,1.0,1.0,85,0.00,,,0.00,Wunderground v.1.15,2013-01-05 04:05:00,
2013-01-04 23:10:00,25.4,21.5,30.46,WNW,302,0.0,2.0,85,0.00,,,0.00,Wunderground v.1.15,2013-01-05 04:10:00,
2013-01-04 23:20:00,25.4,21.5,30.46,WNW,288,1.0,1.0,85,0.00,,,0.00,Wunderground v.1.15,2013-01-05 04:20:00,
2013-01-04 23:25:00,25.4,21.5,30.46,West,270,1.0,1.0,85,0.00,,,0.00,Wunderground v.1.15,2013-01-05 04:25:00,
2013-01-04 23:30:00,25.4,21.5,30.46,West,270,0.0,0.0,85,0.00,,,0.00,Wunderground v.1.15,2013-01-05 04:30:00,
2013-01-04 23:40:00,25.2,21.3,30.47,West,270,0.0,0.0,85,0.00,,,0.00,Wunderground v.1.15,2013-01-05 04:40:00,
2013-01-04 23:45:00,25.1,21.2,30.47,West,270,0.0,0.0,85,0.00,,,0.00,Wunderground v.1.15,2013-01-05 04:45:00,
2013-01-04 23:55:00,24.7,21.1,30.47,WNW,296,0.0,0.0,86,0.00,,,0.00,Wunderground v.1.15,2013-01-05 04:55:00,